,,Stat6,,Stat2,,Stat8,,Stat9,,Stat10,,Wind1,,Wind1,
time,status,PA1M_AVG,status,PR1M_SUM,status,RH1M_AVG,status,SR1M_AVG,status,TA1M_AVG,status,W1dAve1m,status,W1sAve1m,
2005-11-16, 00:00:00,VALID,916.647,VALID,0,VALID,100,VALID,0,VALID,20.0258,VALID,21,VALID,1.01435,
2005-11-16, 00:01:00,VALID,916.637,VALID,0,VALID,100,VALID,-0.0339617,VALID,19.9968,VALID,22,VALID,1.00149,
2005-11-16, 00:02:00,VALID,916.611,VALID,0,VALID,100,VALID,-0.0169808,VALID,19.957,VALID,10,VALID,1.06811,
2005-11-16, 00:03:00,VALID,916.607,VALID,0,VALID,100,VALID,-0.0169808,VALID,19.951,VALID,25,VALID,1.06922,
2005-11-16, 00:04:00,VALID,916.594,VALID,0,VALID,100,VALID,0.0509425,VALID,19.9761,VALID,24,VALID,1.1624,
2005-11-16, 00:05:00,VALID,916.575,VALID,0,VALID,100,VALID,0.0849042,VALID,19.9754,VALID,24,VALID,1.17152,
2005-11-16, 00:06:00,VALID,916.565,VALID,0,VALID,100,VALID,0.101885,VALID,19.959,VALID,28,VALID,1.23686,
2005-11-16, 00:07:00,VALID,916.538,VALID,0,VALID,100,VALID,0.0679233,VALID,19.9619,VALID,21,VALID,1.15642,
2005-11-16, 00:08:00,VALID,916.507,VALID,0,VALID,100,VALID,0.101885,VALID,19.9783,VALID,352,VALID,0.855945,
2005-11-16, 00:09:00,VALID,916.491,VALID,0,VALID,100,VALID,0.0849042,VALID,19.9202,VALID,9,VALID,1.04516,
2005-11-16, 00:10:00,VALID,916.47,VALID,0,VALID,100,VALID,0.101885,VALID,19.9107,VALID,21,VALID,1.43378,
2005-11-16, 00:11:00,VALID,916.467,VALID,0,VALID,100,VALID,0.0509425,VALID,19.9269,VALID,16,VALID,1.45617,
2005-11-16, 00:12:00,VALID,916.438,VALID,0,VALID,100,VALID,0.0679233,VALID,19.9237,VALID,17,VALID,1.2936,
2005-11-16, 00:13:00,VALID,916.417,VALID,0,VALID,100,VALID,0.0679233,VALID,19.9045,VALID,21,VALID,1.48401,
2005-11-16, 00:14:00,VALID,916.404,VALID,0,VALID,100,VALID,0.0849042,VALID,19.9045,VALID,25,VALID,1.67746,
2005-11-16, 00:15:00,VALID,916.4,VALID,0,VALID,100,VALID,0.101885,VALID,19.9003,VALID,18,VALID,1.19345,
2005-11-16, 00:16:00,VALID,916.386,VALID,0,VALID,100,VALID,0.101885,VALID,19.8941,VALID,9,VALID,0.975991,
2005-11-16, 00:17:00,VALID,916.356,VALID,0,VALID,100,VALID,0.0509425,VALID,19.8817,VALID,355,VALID,0.628289,
2005-11-16, 00:18:00,VALID,916.332,VALID,0,VALID,100,VALID,0.0679233,VALID,19.863,VALID,8,VALID,0.890816,
2005-11-16, 00:19:00,VALID,916.325,VALID,0.2,VALID,100,VALID,0.0169808,VALID,19.8533,VALID,28,VALID,0.855378,
2005-11-16, 00:20:00,VALID,916.305,VALID,0,VALID,100,VALID,0,VALID,19.8474,VALID,10,VALID,1.14691,
2005-11-16, 00:21:00,VALID,916.285,VALID,0,VALID,100,VALID,0,VALID,19.8379,VALID,13,VALID,1.06155,
2005-11-16, 00:22:00,VALID,916.282,VALID,0,VALID,100,VALID,-0.0169808,VALID,19.8287,VALID,285,VALID,0.9875,
2005-11-16, 00:23:00,VALID,916.23,VALID,0,VALID,100,VALID,-0.0169808,VALID,19.7862,VALID,6,VALID,1.6401,
2005-11-16, 00:24:00,VALID,916.207,VALID,0,VALID,100,VALID,0,VALID,19.7892,VALID,8,VALID,1.14215,
2005-11-16, 00:25:00,VALID,916.203,VALID,0,VALID,100,VALID,-0.0339617,VALID,19.8126,VALID,19,VALID,1.06288,
2005-11-16, 00:26:00,VALID,916.172,VALID,0,VALID,100,VALID,0,VALID,19.8083,VALID,31,VALID,0.791602,
2005-11-16, 00:27:00,VALID,916.156,VALID,0,VALID,100,VALID,0,VALID,19.822,VALID,22,VALID,1.33333,
2005-11-16, 00:28:00,VALID,916.139,VALID,0,VALID,100,VALID,-0.0509425,VALID,19.8387,VALID,360,VALID,0.772049,
2005-11-16, 00:29:00,VALID,916.11,VALID,0,VALID,100,VALID,-0.0509425,VALID,19.8026,VALID,3,VALID,0.959441,
2005-11-16, 00:30:00,VALID,916.096,VALID,0,VALID,100,VALID,-0.0169808,VALID,19.8128,VALID,13,VALID,0.676599,
2005-11-16, 00:31:00,VALID,916.087,VALID,0,VALID,100,VALID,-0.0509425,VALID,19.8059,VALID,14,VALID,0.740057,
2005-11-16, 00:32:00,VALID,916.073,VALID,0,VALID,100,VALID,-0.0339617,VALID,19.8255,VALID,310,VALID,0.578869,
2005-11-16, 00:33:00,VALID,916.065,VALID,0,VALID,100,VALID,-0.0339617,VALID,19.8287,VALID,16,VALID,0.939174,
2005-11-16, 00:34:00,VALID,916.049,VALID,0,VALID,100,VALID,0,VALID,19.8372,VALID,20,VALID,1.30897,
2005-11-16, 00:35:00,VALID,916.026,VALID,0,VALID,100,VALID,0.0679233,VALID,19.8528,VALID,15,VALID,1.36452,
2005-11-16, 00:36:00,VALID,916.031,VALID,0,VALID,100,VALID,0.0849042,VALID,19.8501,VALID,24,VALID,0.888263,
2005-11-16, 00:37:00,VALID,916.019,VALID,0,VALID,100,VALID,0.0509425,VALID,19.8533,VALID,17,VALID,1.0071,
2005-11-16, 00:38:00,VALID,916.007,VALID,0,VALID,100,VALID,0.0679233,VALID,19.8459,VALID,24,VALID,0.902043,
2005-11-16, 00:39:00,VALID,915.994,VALID,0,VALID,100,VALID,0.0679233,VALID,19.859,VALID,17,VALID,0.797619,
2005-11-16, 00:40:00,VALID,915.981,VALID,0,VALID,100,VALID,0.0339617,VALID,19.8401,VALID,26,VALID,1.03106,
2005-11-16, 00:41:00,VALID,915.956,VALID,0,VALID,100,VALID,0.0849042,VALID,19.8466,VALID,36,VALID,0.659226,
2005-11-16, 00:42:00,VALID,915.939,VALID,0,VALID,100,VALID,0.0509425,VALID,19.8727,VALID,28,VALID,0.93407,
2005-11-16, 00:43:00,VALID,915.925,VALID,0,VALID,100,VALID,0.0339617,VALID,19.8787,VALID,21,VALID,1.0347,
2005-11-16, 00:44:00,VALID,915.895,VALID,0,VALID,100,VALID,0.0849042,VALID,19.8727,VALID,19,VALID,1.04797,
2005-11-16, 00:45:00,VALID,915.899,VALID,0,VALID,100,VALID,0.0339617,VALID,19.8528,VALID,25,VALID,0.894159,
2005-11-16, 00:46:00,VALID,915.886,VALID,0,VALID,100,VALID,0.101885,VALID,19.86,VALID,23,VALID,1.01897,
2005-11-16, 00:47:00,VALID,915.864,VALID,0,VALID,100,VALID,0.0679233,VALID,19.8563,VALID,23,VALID,1.14116,
2005-11-16, 00:48:00,VALID,915.843,VALID,0,VALID,100,VALID,0.0509425,VALID,19.8431,VALID,16,VALID,0.918713,
2005-11-16, 00:49:00,VALID,915.836,VALID,0,VALID,100,VALID,0.0169808,VALID,19.8377,VALID,340,VALID,0.842634,
2005-11-16, 00:50:00,VALID,915.834,VALID,0,VALID,100,VALID,-0.0339617,VALID,19.8349,VALID,36,VALID,0.731534,
2005-11-16, 00:51:00,VALID,915.799,VALID,0,VALID,100,VALID,0,VALID,19.8317,VALID,37,VALID,0.0477834,
2005-11-16, 00:52:00,VALID,915.796,VALID,0,VALID,100,VALID,0,VALID,19.8282,VALID,37,VALID,0,
2005-11-16, 00:53:00,VALID,915.764,VALID,0,VALID,100,VALID,0,VALID,19.8382,VALID,32,VALID,0.598323,
2005-11-16, 00:54:00,VALID,915.764,VALID,0,VALID,100,VALID,0,VALID,19.831,VALID,332,VALID,0.509448,
2005-11-16, 00:55:00,VALID,915.744,VALID,0,VALID,100,VALID,0,VALID,19.7862,VALID,265,VALID,0.215909,
2005-11-16, 00:56:00,VALID,915.713,VALID,0,VALID,100,VALID,0,VALID,19.7964,VALID,265,VALID,0.0487351,
2005-11-16, 00:57:00,VALID,915.709,VALID,0,VALID,100,VALID,0,VALID,19.8024,VALID,315,VALID,0.408727,
2005-11-16, 00:58:00,VALID,915.69,VALID,0,VALID,100,VALID,0,VALID,19.8223,VALID,62,VALID,0.415879,
2005-11-16, 00:59:00,VALID,915.676,VALID,0,VALID,100,VALID,-0.0339617,VALID,19.7892,VALID,14,VALID,1.1131,
2005-11-16, 01:00:00,VALID,915.673,VALID,0,VALID,100,VALID,0,VALID,19.8223,VALID,24,VALID,1.30618,
2005-11-16, 01:01:00,VALID,915.658,VALID,0,VALID,100,VALID,-0.0169808,VALID,19.8183,VALID,23,VALID,1.20122,
2005-11-16, 01:02:00,VALID,915.651,VALID,0,VALID,100,VALID,0,VALID,19.8382,VALID,24,VALID,1.13263,
2005-11-16, 01:03:00,VALID,915.647,VALID,0,VALID,100,VALID,0,VALID,19.8479,VALID,25,VALID,0.848011,
2005-11-16, 01:04:00,VALID,915.62,VALID,0,VALID,100,VALID,0,VALID,19.8411,VALID,23,VALID,0.561198,
2005-11-16, 01:05:00,VALID,915.627,VALID,0,VALID,100,VALID,0,VALID,19.8218,VALID,20,VALID,0.792683,
2005-11-16, 01:06:00,VALID,915.599,VALID,0,VALID,100,VALID,0,VALID,19.8441,VALID,31,VALID,0.958939,
2005-11-16, 01:07:00,VALID,915.589,VALID,0,VALID,100,VALID,0,VALID,19.8538,VALID,27,VALID,0.970833,
2005-11-16, 01:08:00,VALID,915.575,VALID,0,VALID,100,VALID,0,VALID,19.867,VALID,25,VALID,0.634448,
2005-11-16, 01:09:00,VALID,915.554,VALID,0,VALID,100,VALID,-0.0169808,VALID,19.8707,VALID,21,VALID,0.778832,
2005-11-16, 01:10:00,VALID,915.539,VALID,0,VALID,100,VALID,0,VALID,19.8769,VALID,19,VALID,0.597202,
2005-11-16, 01:11:00,VALID,915.521,VALID,0,VALID,100,VALID,0,VALID,19.8864,VALID,21,VALID,0.714558,
2005-11-16, 01:12:00,VALID,915.505,VALID,0,VALID,100,VALID,0.0169808,VALID,19.8928,VALID,31,VALID,0.518787,
2005-11-16, 01:13:00,VALID,915.484,VALID,0,VALID,100,VALID,0,VALID,19.8866,VALID,31,VALID,0.486914,
2005-11-16, 01:14:00,VALID,915.485,VALID,0,VALID,100,VALID,-0.0169808,VALID,19.8603,VALID,29,VALID,0.255327,
2005-11-16, 01:15:00,VALID,915.465,VALID,0,VALID,100,VALID,-0.0169808,VALID,19.8511,VALID,29,VALID,0.148065,
2005-11-16, 01:16:00,VALID,915.442,VALID,0,VALID,100,VALID,0.0169808,VALID,19.8451,VALID,29,VALID,0.185082,
2005-11-16, 01:17:00,VALID,915.434,VALID,0,VALID,100,VALID,0,VALID,19.8384,VALID,24,VALID,0.449405,
2005-11-16, 01:18:00,VALID,915.406,VALID,0,VALID,100,VALID,0,VALID,19.8247,VALID,23,VALID,0.816692,
2005-11-16, 01:19:00,VALID,915.389,VALID,0,VALID,100,VALID,-0.0169808,VALID,19.8449,VALID,29,VALID,0.864025,
2005-11-16, 01:20:00,VALID,915.366,VALID,0,VALID,100,VALID,0.0169808,VALID,19.8242,VALID,25,VALID,0.948103,
2005-11-16, 01:21:00,VALID,915.352,VALID,0,VALID,100,VALID,-0.0169808,VALID,19.8347,VALID,14,VALID,0.876953,
2005-11-16, 01:22:00,VALID,915.345,VALID,0,VALID,100,VALID,0,VALID,19.8285,VALID,48,VALID,0.859557,
2005-11-16, 01:23:00,VALID,915.336,VALID,0,VALID,100,VALID,0,VALID,19.7989,VALID,19,VALID,0.862351,
2005-11-16, 01:24:00,VALID,915.334,VALID,0,VALID,100,VALID,0,VALID,19.7927,VALID,18,VALID,1.1448,
2005-11-16, 01:25:00,VALID,915.32,VALID,0,VALID,100,VALID,0,VALID,19.8252,VALID,28,VALID,0.870458,
2005-11-16, 01:26:00,VALID,915.31,VALID,0,VALID,100,VALID,-0.0169808,VALID,19.8255,VALID,21,VALID,1.17299,
2005-11-16, 01:27:00,VALID,915.326,VALID,0,VALID,100,VALID,0,VALID,19.8024,VALID,355,VALID,0.53418,
2005-11-16, 01:28:00,VALID,915.311,VALID,0,VALID,100,VALID,-0.0169808,VALID,19.816,VALID,322,VALID,0.215511,
2005-11-16, 01:29:00,VALID,915.298,VALID,0,VALID,100,VALID,-0.0169808,VALID,19.8091,VALID,7,VALID,0.520389,
2005-11-16, 01:30:00,VALID,915.271,VALID,0,VALID,100,VALID,-0.0169808,VALID,19.8093,VALID,10,VALID,0.883185,
2005-11-16, 01:31:00,VALID,915.271,VALID,0,VALID,100,VALID,0,VALID,19.8091,VALID,22,VALID,1.33212,
2005-11-16, 01:32:00,VALID,915.28,VALID,0,VALID,100,VALID,0,VALID,19.8419,VALID,21,VALID,0.669744,
2005-11-16, 01:33:00,VALID,915.264,VALID,0,VALID,100,VALID,-0.0169808,VALID,19.8019,VALID,6,VALID,0.629416,
2005-11-16, 01:34:00,VALID,915.268,VALID,0,VALID,100,VALID,-0.0509425,VALID,19.7897,VALID,34,VALID,0.942224,
2005-11-16, 01:35:00,VALID,915.263,VALID,0,VALID,100,VALID,0,VALID,19.7867,VALID,344,VALID,0.255682,
2005-11-16, 01:36:00,VALID,915.266,VALID,0,VALID,100,VALID,-0.0169808,VALID,19.7576,VALID,360,VALID,0.377907,
2005-11-16, 01:37:00,VALID,915.267,VALID,0,VALID,100,VALID,-0.0339617,VALID,19.7447,VALID,12,VALID,0.454368,
2005-11-16, 01:38:00,VALID,915.272,VALID,0,VALID,100,VALID,0,VALID,19.7479,VALID,13,VALID,0.726749,
2005-11-16, 01:39:00,VALID,915.277,VALID,0,VALID,100,VALID,0,VALID,19.7571,VALID,28,VALID,0.795422,
2005-11-16, 01:40:00,VALID,915.277,VALID,0,VALID,100,VALID,-0.0169808,VALID,19.7768,VALID,19,VALID,0.716844,
2005-11-16, 01:41:00,VALID,915.274,VALID,0.2,VALID,100,VALID,-0.0339617,VALID,19.7795,VALID,30,VALID,0.879102,
2005-11-16, 01:42:00,VALID,915.265,VALID,0,VALID,100,VALID,0,VALID,19.7701,VALID,24,VALID,0.568026,
2005-11-16, 01:43:00,VALID,915.258,VALID,0,VALID,100,VALID,0.0339617,VALID,19.7569,VALID,19,VALID,0.405086,
2005-11-16, 01:44:00,VALID,915.257,VALID,0,VALID,100,VALID,0,VALID,19.7412,VALID,20,VALID,0.913318,
2005-11-16, 01:45:00,VALID,915.253,VALID,0,VALID,100,VALID,0,VALID,19.7251,VALID,19,VALID,0.564844,
2005-11-16, 01:46:00,VALID,915.25,VALID,0,VALID,100,VALID,0,VALID,19.7017,VALID,16,VALID,0.396662,
2005-11-16, 01:47:00,VALID,915.246,VALID,0,VALID,100,VALID,0,VALID,19.7256,VALID,22,VALID,1.1423,
2005-11-16, 01:48:00,VALID,915.247,VALID,0,VALID,100,VALID,0,VALID,19.7251,VALID,19,VALID,0.718192,
2005-11-16, 01:49:00,VALID,915.248,VALID,0,VALID,100,VALID,-0.0679233,VALID,19.7325,VALID,353,VALID,0.550327,
2005-11-16, 01:50:00,VALID,915.24,VALID,0,VALID,100,VALID,-0.0849042,VALID,19.7042,VALID,95,VALID,0.758956,
2005-11-16, 01:51:00,VALID,915.247,VALID,0,VALID,100,VALID,-0.101885,VALID,19.6684,VALID,14,VALID,0.373094,
2005-11-16, 01:52:00,VALID,915.224,VALID,0,VALID,100,VALID,-0.101885,VALID,19.6169,VALID,342,VALID,0.955503,
2005-11-16, 01:53:00,VALID,915.222,VALID,0,VALID,100,VALID,-0.101885,VALID,19.5523,VALID,49,VALID,0.995999,
2005-11-16, 01:54:00,VALID,915.205,VALID,0,VALID,100,VALID,-0.101885,VALID,19.519,VALID,348,VALID,0.410429,
2005-11-16, 01:55:00,VALID,915.202,VALID,0,VALID,100,VALID,-0.101885,VALID,19.4616,VALID,329,VALID,0.555596,
2005-11-16, 01:56:00,VALID,915.201,VALID,0,VALID,100,VALID,-0.101885,VALID,19.4646,VALID,22,VALID,0.611281,
2005-11-16, 01:57:00,VALID,915.195,VALID,0,VALID,100,VALID,-0.101885,VALID,19.4812,VALID,47,VALID,0.432927,
2005-11-16, 01:58:00,VALID,915.199,VALID,0,VALID,100,VALID,-0.101885,VALID,19.4941,VALID,40,VALID,0.267223,
2005-11-16, 01:59:00,VALID,915.178,VALID,0,VALID,100,VALID,-0.101885,VALID,19.4941,VALID,92,VALID,0.448946,
2005-11-16, 02:00:00,VALID,915.179,VALID,0,VALID,100,VALID,-0.101885,VALID,19.4941,VALID,24,VALID,1.02172,
2005-11-16, 02:01:00,VALID,915.151,VALID,0,VALID,100,VALID,-0.101885,VALID,19.4521,VALID,353,VALID,1.28739,
2005-11-16, 02:02:00,VALID,915.164,VALID,0,VALID,100,VALID,-0.0849042,VALID,19.4228,VALID,296,VALID,0.474432,
2005-11-16, 02:03:00,VALID,915.149,VALID,0,VALID,100,VALID,-0.0849042,VALID,19.4124,VALID,8,VALID,0.904344,
2005-11-16, 02:04:00,VALID,915.15,VALID,0,VALID,100,VALID,-0.0169808,VALID,19.4059,VALID,353,VALID,0.610102,
2005-11-16, 02:05:00,VALID,915.151,VALID,0,VALID,100,VALID,0,VALID,19.3987,VALID,2,VALID,0.416193,
2005-11-16, 02:06:00,VALID,915.143,VALID,0,VALID,100,VALID,0.0169808,VALID,19.389,VALID,240,VALID,0.644985,
2005-11-16, 02:07:00,VALID,915.134,VALID,0,VALID,100,VALID,0,VALID,19.3726,VALID,358,VALID,1.03068,
2005-11-16, 02:08:00,VALID,915.139,VALID,0,VALID,100,VALID,0.0169808,VALID,19.3602,VALID,23,VALID,1.53797,
2005-11-16, 02:09:00,VALID,915.126,VALID,0,VALID,100,VALID,0,VALID,19.3376,VALID,18,VALID,1.29948,
2005-11-16, 02:10:00,VALID,915.111,VALID,0,VALID,100,VALID,0,VALID,19.3246,VALID,19,VALID,1.07309,
2005-11-16, 02:11:00,VALID,915.094,VALID,0,VALID,100,VALID,0,VALID,19.3246,VALID,200,VALID,0.598837,
2005-11-16, 02:12:00,VALID,915.074,VALID,0,VALID,100,VALID,0,VALID,19.3053,VALID,25,VALID,0.854403,
2005-11-16, 02:13:00,VALID,915.052,VALID,0,VALID,100,VALID,-0.0169808,VALID,19.302,VALID,13,VALID,1.03335,
2005-11-16, 02:14:00,VALID,915.035,VALID,0,VALID,100,VALID,0,VALID,19.2859,VALID,12,VALID,1.5989,
2005-11-16, 02:15:00,VALID,915.042,VALID,0,VALID,100,VALID,0,VALID,19.2923,VALID,46,VALID,0.736919,
2005-11-16, 02:16:00,VALID,915.024,VALID,0,VALID,100,VALID,0.0169808,VALID,19.3217,VALID,25,VALID,1.17969,
2005-11-16, 02:17:00,VALID,915.011,VALID,0,VALID,100,VALID,0,VALID,19.3507,VALID,8,VALID,1.15945,
2005-11-16, 02:18:00,VALID,915.028,VALID,0,VALID,100,VALID,0,VALID,19.3468,VALID,342,VALID,0.432664,
2005-11-16, 02:19:00,VALID,915.017,VALID,0,VALID,100,VALID,-0.0679233,VALID,19.3353,VALID,10,VALID,0.784722,
2005-11-16, 02:20:00,VALID,915.025,VALID,0,VALID,100,VALID,-0.0849042,VALID,19.3293,VALID,12,VALID,0.64596,
2005-11-16, 02:21:00,VALID,915.017,VALID,0,VALID,100,VALID,-0.101885,VALID,19.336,VALID,1,VALID,0.834375,
2005-11-16, 02:22:00,VALID,915.036,VALID,0,VALID,100,VALID,-0.101885,VALID,19.3331,VALID,335,VALID,0.894336,
2005-11-16, 02:23:00,VALID,915.024,VALID,0,VALID,100,VALID,-0.118866,VALID,19.2846,VALID,10,VALID,1.07431,
2005-11-16, 02:24:00,VALID,915.005,VALID,0,VALID,100,VALID,-0.101885,VALID,19.2846,VALID,10,VALID,1.05134,
2005-11-16, 02:25:00,VALID,914.995,VALID,0,VALID,100,VALID,-0.101885,VALID,19.262,VALID,357,VALID,1.39184,
2005-11-16, 02:26:00,VALID,915.017,VALID,0,VALID,100,VALID,-0.0849042,VALID,19.249,VALID,1,VALID,0.486555,
2005-11-16, 02:27:00,VALID,915.036,VALID,0,VALID,100,VALID,-0.101885,VALID,19.2679,VALID,20,VALID,0.163672,
2005-11-16, 02:28:00,VALID,915.042,VALID,0.2,VALID,100,VALID,-0.101885,VALID,19.2843,VALID,15,VALID,1.09084,
2005-11-16, 02:29:00,VALID,915.066,VALID,0,VALID,100,VALID,-0.101885,VALID,19.2779,VALID,1,VALID,1.37202,
2005-11-16, 02:30:00,VALID,915.077,VALID,0,VALID,100,VALID,-0.101885,VALID,19.2359,VALID,347,VALID,0.984557,
2005-11-16, 02:31:00,VALID,915.07,VALID,0,VALID,100,VALID,-0.101885,VALID,19.2324,VALID,8,VALID,1.88672,
2005-11-16, 02:32:00,VALID,915.074,VALID,0,VALID,100,VALID,-0.101885,VALID,19.2197,VALID,351,VALID,1.30814,
2005-11-16, 02:33:00,VALID,915.078,VALID,0.2,VALID,100,VALID,-0.0849042,VALID,19.1969,VALID,354,VALID,1.04241,
2005-11-16, 02:34:00,VALID,915.074,VALID,0,VALID,100,VALID,-0.0339617,VALID,19.2125,VALID,17,VALID,1.02097,
2005-11-16, 02:35:00,VALID,915.082,VALID,0,VALID,100,VALID,0,VALID,19.2444,VALID,21,VALID,1.15585,
2005-11-16, 02:36:00,VALID,915.088,VALID,0,VALID,100,VALID,0,VALID,19.257,VALID,27,VALID,1.0318,
2005-11-16, 02:37:00,VALID,915.073,VALID,0,VALID,100,VALID,0,VALID,19.273,VALID,12,VALID,0.60061,
2005-11-16, 02:38:00,VALID,915.096,VALID,0,VALID,100,VALID,0.0339617,VALID,19.2856,VALID,33,VALID,0.576029,
2005-11-16, 02:39:00,VALID,915.082,VALID,0,VALID,100,VALID,0,VALID,19.2894,VALID,22,VALID,0.454578,
2005-11-16, 02:40:00,VALID,915.092,VALID,0,VALID,100,VALID,0,VALID,19.2409,VALID,352,VALID,0.7766,
2005-11-16, 02:41:00,VALID,915.093,VALID,0,VALID,100,VALID,0.0169808,VALID,19.231,VALID,15,VALID,0.823742,
2005-11-16, 02:42:00,VALID,915.101,VALID,0,VALID,100,VALID,0.0169808,VALID,19.2541,VALID,12,VALID,0.440234,
2005-11-16, 02:43:00,VALID,915.097,VALID,0.2,VALID,100,VALID,0.0169808,VALID,19.2503,VALID,12,VALID,0.963224,
2005-11-16, 02:44:00,VALID,915.113,VALID,0,VALID,100,VALID,0,VALID,19.2573,VALID,23,VALID,0.752486,
2005-11-16, 02:45:00,VALID,915.107,VALID,0,VALID,100,VALID,0,VALID,19.2926,VALID,25,VALID,0.26242,
2005-11-16, 02:46:00,VALID,915.117,VALID,0,VALID,100,VALID,0,VALID,19.2995,VALID,25,VALID,0.0411086,
2005-11-16, 02:47:00,VALID,915.116,VALID,0,VALID,100,VALID,0,VALID,19.2998,VALID,25,VALID,0.213423,
2005-11-16, 02:48:00,VALID,915.121,VALID,0,VALID,100,VALID,0.0169808,VALID,19.3087,VALID,25,VALID,0.50465,
2005-11-16, 02:49:00,VALID,915.107,VALID,0,VALID,100,VALID,0,VALID,19.3251,VALID,22,VALID,1.18711,
2005-11-16, 02:50:00,VALID,915.12,VALID,0,VALID,100,VALID,-0.0339617,VALID,19.3189,VALID,3,VALID,1.15698,
2005-11-16, 02:51:00,VALID,915.123,VALID,0,VALID,100,VALID,0,VALID,19.2901,VALID,6,VALID,0.81994,
2005-11-16, 02:52:00,VALID,915.121,VALID,0,VALID,100,VALID,0,VALID,19.2931,VALID,20,VALID,0.723264,
2005-11-16, 02:53:00,VALID,915.121,VALID,0,VALID,100,VALID,-0.0169808,VALID,19.3162,VALID,22,VALID,0.88186,
2005-11-16, 02:54:00,VALID,915.137,VALID,0,VALID,100,VALID,-0.0339617,VALID,19.3182,VALID,18,VALID,0.846058,
2005-11-16, 02:55:00,VALID,915.12,VALID,0,VALID,100,VALID,-0.0169808,VALID,19.3418,VALID,22,VALID,0.714844,
2005-11-16, 02:56:00,VALID,915.128,VALID,0,VALID,100,VALID,-0.0169808,VALID,19.3157,VALID,3,VALID,1.02611,
2005-11-16, 02:57:00,VALID,915.112,VALID,0,VALID,100,VALID,0,VALID,19.3122,VALID,16,VALID,1.01962,
2005-11-16, 02:58:00,VALID,915.11,VALID,0,VALID,100,VALID,-0.0169808,VALID,19.3062,VALID,16,VALID,0.974201,
2005-11-16, 02:59:00,VALID,915.091,VALID,0,VALID,100,VALID,-0.0849042,VALID,19.3194,VALID,12,VALID,0.955915,
2005-11-16, 03:00:00,VALID,915.087,VALID,0,VALID,100,VALID,-0.0169808,VALID,19.2896,VALID,11,VALID,1.28181,
2005-11-16, 03:01:00,VALID,915.058,VALID,0,VALID,100,VALID,0,VALID,19.2637,VALID,16,VALID,1.28379,
2005-11-16, 03:02:00,VALID,915.039,VALID,0,VALID,100,VALID,-0.0169808,VALID,19.2767,VALID,22,VALID,1.35629,
2005-11-16, 03:03:00,VALID,915.039,VALID,0,VALID,100,VALID,0,VALID,19.3003,VALID,15,VALID,1.45803,
2005-11-16, 03:04:00,VALID,915.034,VALID,0,VALID,100,VALID,0,VALID,19.2573,VALID,352,VALID,1.34624,
2005-11-16, 03:05:00,VALID,915.037,VALID,0,VALID,100,VALID,0,VALID,19.2506,VALID,1,VALID,0.708212,
2005-11-16, 03:06:00,VALID,915.051,VALID,0,VALID,100,VALID,-0.0169808,VALID,19.2347,VALID,359,VALID,0.774148,
2005-11-16, 03:07:00,VALID,915.068,VALID,0,VALID,100,VALID,-0.0169808,VALID,19.2476,VALID,17,VALID,0.762607,
2005-11-16, 03:08:00,VALID,915.076,VALID,0,VALID,100,VALID,0,VALID,19.2642,VALID,14,VALID,0.302912,
2005-11-16, 03:09:00,VALID,915.088,VALID,0,VALID,100,VALID,-0.0169808,VALID,19.2543,VALID,22,VALID,1.09261,
2005-11-16, 03:10:00,VALID,915.098,VALID,0,VALID,100,VALID,-0.0169808,VALID,19.2709,VALID,26,VALID,1.09801,
2005-11-16, 03:11:00,VALID,915.102,VALID,0,VALID,100,VALID,-0.0339617,VALID,19.267,VALID,22,VALID,0.946075,
2005-11-16, 03:12:00,VALID,915.105,VALID,0,VALID,100,VALID,0,VALID,19.2871,VALID,23,VALID,0.832122,
2005-11-16, 03:13:00,VALID,915.096,VALID,0,VALID,100,VALID,-0.0339617,VALID,19.264,VALID,17,VALID,0.745206,
2005-11-16, 03:14:00,VALID,915.103,VALID,0,VALID,100,VALID,-0.0509425,VALID,19.261,VALID,24,VALID,1.03543,
2005-11-16, 03:15:00,VALID,915.099,VALID,0,VALID,100,VALID,-0.0679233,VALID,19.2809,VALID,21,VALID,1.0189,
2005-11-16, 03:16:00,VALID,915.102,VALID,0,VALID,100,VALID,-0.0339617,VALID,19.2769,VALID,20,VALID,0.971799,
2005-11-16, 03:17:00,VALID,915.102,VALID,0,VALID,100,VALID,-0.0509425,VALID,19.2645,VALID,353,VALID,0.796165,
2005-11-16, 03:18:00,VALID,915.081,VALID,0,VALID,100,VALID,-0.0169808,VALID,19.2545,VALID,9,VALID,0.968369,
2005-11-16, 03:19:00,VALID,915.067,VALID,0,VALID,100,VALID,-0.0679233,VALID,19.2647,VALID,9,VALID,0.979353,
2005-11-16, 03:20:00,VALID,915.067,VALID,0,VALID,100,VALID,-0.0339617,VALID,19.2513,VALID,360,VALID,0.756138,
2005-11-16, 03:21:00,VALID,915.066,VALID,0,VALID,100,VALID,-0.0509425,VALID,19.2612,VALID,1,VALID,0.555903,
2005-11-16, 03:22:00,VALID,915.066,VALID,0,VALID,100,VALID,-0.0339617,VALID,19.2709,VALID,16,VALID,0.81994,
2005-11-16, 03:23:00,VALID,915.067,VALID,0,VALID,100,VALID,-0.0339617,VALID,19.2873,VALID,17,VALID,0.958147,
2005-11-16, 03:24:00,VALID,915.063,VALID,0,VALID,100,VALID,0,VALID,19.2642,VALID,334,VALID,1.1503,
2005-11-16, 03:25:00,VALID,915.074,VALID,0,VALID,100,VALID,-0.0169808,VALID,19.2185,VALID,351,VALID,0.769531,
2005-11-16, 03:26:00,VALID,915.07,VALID,0,VALID,100,VALID,-0.0169808,VALID,19.2354,VALID,324,VALID,0.530506,
2005-11-16, 03:27:00,VALID,915.076,VALID,0,VALID,100,VALID,-0.0169808,VALID,19.2121,VALID,349,VALID,0.502096,
2005-11-16, 03:28:00,VALID,915.071,VALID,0,VALID,100,VALID,-0.0169808,VALID,19.2322,VALID,353,VALID,0.964757,
2005-11-16, 03:29:00,VALID,915.066,VALID,0,VALID,100,VALID,-0.0339617,VALID,19.2222,VALID,354,VALID,0.840661,
2005-11-16, 03:30:00,VALID,915.048,VALID,0,VALID,100,VALID,0,VALID,19.1996,VALID,330,VALID,0.919792,
2005-11-16, 03:31:00,VALID,915.043,VALID,0,VALID,100,VALID,-0.0339617,VALID,19.2026,VALID,343,VALID,0.621804,
2005-11-16, 03:32:00,VALID,915.021,VALID,0,VALID,100,VALID,-0.0169808,VALID,19.2095,VALID,348,VALID,0.314174,
2005-11-16, 03:33:00,VALID,915.025,VALID,0,VALID,100,VALID,0,VALID,19.2118,VALID,8,VALID,0.710582,
2005-11-16, 03:34:00,VALID,915.024,VALID,0,VALID,100,VALID,-0.0169808,VALID,19.221,VALID,3,VALID,1.0106,
2005-11-16, 03:35:00,VALID,915.014,VALID,0,VALID,100,VALID,0.0679233,VALID,19.2079,VALID,17,VALID,1.06195,
2005-11-16, 03:36:00,VALID,915.018,VALID,0,VALID,100,VALID,0.0339617,VALID,19.2116,VALID,13,VALID,1.39965,
2005-11-16, 03:37:00,VALID,915.014,VALID,0,VALID,100,VALID,0.0679233,VALID,19.2014,VALID,23,VALID,1.17759,
2005-11-16, 03:38:00,VALID,915.025,VALID,0,VALID,100,VALID,0.0849042,VALID,19.2113,VALID,20,VALID,1.58945,
2005-11-16, 03:39:00,VALID,915.05,VALID,0,VALID,100,VALID,0.0849042,VALID,19.1922,VALID,15,VALID,1.33718,
2005-11-16, 03:40:00,VALID,915.056,VALID,0,VALID,100,VALID,0.0339617,VALID,19.1986,VALID,12,VALID,0.353016,
2005-11-16, 03:41:00,VALID,915.069,VALID,0,VALID,100,VALID,0.0849042,VALID,19.1982,VALID,352,VALID,0.301258,
2005-11-16, 03:42:00,VALID,915.08,VALID,0,VALID,100,VALID,0.0679233,VALID,19.218,VALID,350,VALID,0.0670421,
2005-11-16, 03:43:00,VALID,915.077,VALID,0,VALID,100,VALID,0.0849042,VALID,19.2046,VALID,350,VALID,0.297877,
2005-11-16, 03:44:00,VALID,915.08,VALID,0,VALID,100,VALID,0.0679233,VALID,19.181,VALID,350,VALID,0.21189,
2005-11-16, 03:45:00,VALID,915.088,VALID,0,VALID,100,VALID,0.0849042,VALID,19.2076,VALID,3,VALID,0.514717,